Regional Weather Roundup
Issued by NWS Kansas City/Pleasant Hill, MO

Home | Current Version | Previous Version | Graphics & Text | Print | Product List | Glossary Off
Versions: 1 2 3 4 5 6 7 8 9 10 11 12 13 14 15 16 17 18 19 20 21 22 23 24 25 26 27 28 29 30 31 32 33 34 35 36 37 38 39 40 41 42 43 44 45 46 47 48 49 50

000
ASUS43 KEAX 252110
RWREAX

WEATHER ROUNDUP FOR EASTERN KANSAS AND NORTHWEST MISSOURI
NATIONAL WEATHER SERVICE KANSAS CITY/PLEASANT HILL MO
400 PM CDT MON MAY 25 2015

KSZ040-057-103>105-MOZ028-029-037-043-252200-
...KANSAS CITY METROPOLITAN AREA...

CITY           SKY/WX    TMP DP  RH WIND       PRES   REMARKS
K.C. INTL      PTSUNNY   78  66  66 S20G30    29.85F
K.C. DOWNTOWN  LGT RAIN  81  64  56 S20G28    29.85F
LEES SUMMIT    PTSUNNY   79  64  60 S16G25    29.88F
OLATHE - IXD   MOSUNNY   80  65  59 S20G30    29.86F
OLATHE - OJC   PTSUNNY   79  66  64 S18G25    29.86F
LAWRENCE       MOSUNNY   81  65  58 S16G31    29.83F

$$

MOZ001>008-011>017-020>025-030>033-038>040-044>046-053-054-252200-
...NORTHERN AND CENTRAL MISSOURI...

CITY           SKY/WX    TMP DP  RH WIND       PRES   REMARKS
ST. JOSEPH     PTSUNNY   78  66  66 S18       29.83F
MOSBY          MOCLDY    79  64  61 S12G22    29.86F
WARRENSBURG    PTSUNNY   81  64  57 S8G17     29.89F
WHITEMAN AFB   NOT AVBL
CLINTON        SUNNY     82  70  65 S7        29.90F
SEDALIA        MOSUNNY   82  66  58 S13       29.93F
WARSAW         NOT AVBL
CHILLICOTHE      N/A     78  66  66 S10G24    29.89F
KIRKSVILLE     CLOUDY    76  66  71 SW12G22   29.93S

$$

MOZ041-047>049-056>058-063>065-088>090-097-252200-
...EASTERN AND SOUTHERN MISSOURI...

CITY           SKY/WX    TMP DP  RH WIND       PRES   REMARKS
ST. LOUIS INTL MOSUNNY   85  64  49 SE17G23   29.96F
SPIRIT OF STL  PTSUNNY   84  65  52 S10G18    29.94F
COLUMBIA       MOSUNNY   81  68  64 S8        29.94S
JEFFERSON CITY MOSUNNY   83  64  52 S10       29.92F
ROLLA          MOSUNNY   80  67  64 S12       29.95F
OSAGE BEACH    PTSUNNY   82  64  54 SW15G21   29.94S
SPRINGFIELD    PTSUNNY   80  64  58 S15       29.92F
BRANSON        CLOUDY    81  64  57 S13G18    29.95F
JOPLIN         MOSUNNY   80  66  62 S13       29.88F
WEST PLAINS    MOSUNNY   79  64  60 S12       30.01F

$$

IAZ060-094-KSZ022-034>040-054-083-096-NEZ052-066-093-252200-
...KANSAS...SOUTHEAST NEBRASKA AND IOWA...

CITY           SKY/WX    TMP DP  RH WIND       PRES   REMARKS
TOPEKA         MOSUNNY   80  66  62 S21G30    29.81F
MANHATTAN      PTSUNNY   80  66  62 SW15G26   29.76F
EMPORIA        MOSUNNY   79  66  64 S22G31    29.80F
CHANUTE        MOSUNNY   80  66  62 S16G24    29.84F
WICHITA        TSTM      71  64  78 S12       29.81S
OMAHA          PTSUNNY   80  60  50 S14       29.78S
LINCOLN        MOSUNNY   78  62  57 S18       29.79S
FALLS CITY     PTSUNNY   77  65  66 S13       29.80F
LAMONI         MOSUNNY   81  65  58 S21       29.86S
DES MOINES     PTSUNNY   78  62  57 S18G25    29.82S

$$



USA.gov is the U.S. government's official web portal to all federal, state and local government web resources and services.